Home   Weather   India   Farrukhnagar   Past weeks
Flag for India

Past Weather in Farrukhnagar, Haryana, India — Yesterday and Last 2 Weeks

Currently: 75 °F. Haze. (Weather station: New Delhi Palam Airport, India). See more current weather

Past Weather in Farrukhnagar — Graph

°F

Farrukhnagar Temperature Yesterday

Maximum temperature yesterday: 95 °F (at 2:30 pm)
Minimum temperature yesterday: 77 °F (at 4:00 am)
Average temperature yesterday: 86 °F

High & Low Weather Summary for the Past Weeks

 TemperatureHumidityPressure
High100 °F (Apr 11, 2:30 pm)89% (Apr 14, 12:00 pm)30.01 "Hg (Apr 14, 12:00 pm)
Low66 °F (Apr 2, 6:30 am)8% (Apr 9, 4:00 pm)29.74 "Hg (Apr 2, 3:30 am)
Average85 °F31%29.83 "Hg
* Reported Apr 2 3:30 am — Apr 17 4:00 am, Farrukhnagar. Weather by CustomWeather, © 2024

Note: Actual official high and low records may vary slightly from our data, if they occured in-between our weather recording intervals... More about our weather records

Farrukhnagar Weather History for the Previous 24 Hours

Scroll right to see more
 ConditionsComfort  
Time TempWeatherWind HumidityBarometerVisibility
4:00 am
Wed, Apr 17
75 °FHaze.6 mph44%29.77 "Hg2 mi
3:30 am77 °FHaze.7 mph42%29.77 "Hg2 mi
3:00 am77 °FHaze.9 mph42%29.80 "Hg2 mi
2:30 am79 °FHaze.9 mph39%29.80 "Hg2 mi
2:00 am81 °FHaze.9 mph34%29.80 "Hg2 mi
1:30 am81 °FHaze.9 mph32%29.83 "Hg2 mi
1:00 am81 °FHaze.9 mph34%29.83 "Hg2 mi
12:30 am82 °FHaze.12 mph30%29.83 "Hg2 mi
12:00 am82 °FHaze.9 mph30%29.83 "Hg2 mi
11:30 pm
Tue, Apr 16
84 °FHaze.9 mph27%29.83 "Hg3 mi
11:00 pm84 °FHaze.12 mph25%29.83 "Hg3 mi
10:30 pm86 °FHaze.12 mph25%29.86 "Hg3 mi
10:00 pm86 °FHaze.10 mph25%29.86 "Hg3 mi
9:30 pm86 °FHaze.8 mph25%29.86 "Hg3 mi
9:00 pm86 °FHaze.8 mph25%29.83 "Hg3 mi
8:30 pm88 °FHaze.7 mph24%29.83 "Hg3 mi
8:00 pm88 °FHaze.8 mph22%29.83 "Hg3 mi
7:30 pm90 °FHaze.8 mph21%29.80 "Hg3 mi
7:00 pm91 °FHaze.10 mph18%29.80 "Hg3 mi
6:30 pm91 °FPassing clouds.9 mph18%29.80 "Hg4 mi
6:00 pm93 °FPassing clouds.9 mph17%29.77 "Hg4 mi
5:30 pm95 °FPassing clouds.9 mph16%29.77 "Hg4 mi
5:00 pm95 °FPassing clouds.9 mph18%29.77 "Hg4 mi
4:30 pm95 °FPassing clouds.12 mph19%29.80 "Hg4 mi
4:00 pm95 °FPassing clouds.12 mph19%29.80 "Hg5 mi
3:30 pm95 °FPassing clouds.12 mph22%29.80 "Hg5 mi
3:00 pm95 °FPassing clouds.10 mph22%29.80 "Hg5 mi
2:30 pm95 °FPassing clouds.13 mph25%29.83 "Hg4 mi
2:00 pm93 °FPassing clouds.12 mph28%29.83 "Hg4 mi
1:30 pm93 °FPassing clouds.9 mph30%29.86 "Hg4 mi
1:00 pm93 °FPassing clouds.9 mph30%29.89 "Hg4 mi
12:30 pm93 °FHaze.12 mph30%29.89 "Hg3 mi
12:00 pm93 °FHaze.12 mph32%29.92 "Hg2 mi
11:30 am91 °FHaze.9 mph34%29.92 "Hg2 mi
11:00 am90 °FHaze.9 mph38%29.92 "Hg1 mi
10:30 am88 °FScattered clouds.8 mph40%29.92 "Hg1 mi
10:00 am86 °FScattered clouds.7 mph43%29.92 "Hg1 mi
9:30 am84 °FScattered clouds.7 mph45%29.92 "Hg1 mi
9:00 am82 °FScattered clouds.5 mph45%29.89 "Hg1 mi
8:30 am81 °FScattered clouds.6 mph48%29.89 "Hg1 mi
8:00 am79 °FScattered clouds.5 mph51%29.89 "Hg1 mi
7:30 am79 °FScattered clouds.6 mph51%29.89 "Hg1 mi
7:00 am77 °FScattered clouds.5 mph54%29.86 "Hg1 mi
6:30 am77 °FScattered clouds.5 mph57%29.86 "Hg1 mi
6:00 am77 °FPassing clouds.6 mph57%29.86 "Hg1 mi
5:30 am77 °FPassing clouds.6 mph57%29.86 "Hg1 mi
5:00 am77 °FPassing clouds.5 mph61%29.86 "Hg1 mi
Weather by CustomWeather, © 2024

See weather overview